Simultaneous Nadir Overpasses (SNOs) Predictions

Prediction of SNOs between METOP-A and NOAA-19 Satellite Orbit:

Table of predicted SNOs for the next 14.0 days since TLE Epoch: 12/4/2015
Index Date (METOP-A) Time (METOP-A) Lat,Lon (METOP-A) SZA (METOP-A ) Date (NOAA-19) Time (NOAA-19) Lat,Lon (NOAA-19) SZA (NOAA-19 ) Distance(km) Time Diff (sec)
1 12/12/2015 09:36:29 75.73, 34.88 98.71 12/12/2015 09:35:17 75.75, 33.92 98.73 26.35 72
2 12/12/2015 10:27:14 -75.59,-158.23 81.43 12/12/2015 10:26:18 -75.57,-158.28 81.45 2.48 56
3 12/12/2015 11:17:54 75.57, 9.03 98.56 12/12/2015 11:17:15 75.55, 9.07 98.53 2.75 39
4 12/12/2015 12:08:37 -75.53, 176.23 81.49 12/12/2015 12:08:20 -75.56, 176.26 81.46 3.42 17
5 12/12/2015 12:59:16 75.55, -16.36 98.54 12/12/2015 12:59:17 75.53, -16.38 98.52 2.45 1
6 12/12/2015 13:49:59 -75.51, 150.84 81.50 12/12/2015 13:50:22 -75.54, 150.81 81.47 3.50 23
7 12/12/2015 14:40:38 75.54, -41.75 98.53 12/12/2015 14:41:19 75.52, -41.84 98.51 3.28 41
8 12/12/2015 15:31:21 -75.49, 125.44 81.51 12/12/2015 15:32:23 -75.48, 125.50 81.53 2.23 62
9 12/12/2015 16:22:06 75.23, -68.01 98.24 12/12/2015 16:23:16 75.27, -66.56 98.27 41.24 70




NCC Satellite Simultaneous Nadir Overpasses (SNOs) Prediction Service
